Flag for Canada Weather past 2 weeks in Burlington, Ontario, Canada

Now
32 °F

Chilly.


Feels Like: 24 °F
Forecast: 29 / 34 °F
Wind: 9 mph from Southwest

Location: Burlington Piers

Current Time: Dec 17, 2014 at 9:29:21 PM

Latest Report: Dec 17, 2014 at 9:00 PM


Visibility: N/A

Pressure: 30.01 "Hg

Humidity: 90%

Dew point: 29 °F

Location of BurlingtonLocation

Historic Weather in Burlington — Graph

°F

Burlington temperature yesterday

Maximum temperature yesterday: 41 °F (at 11:00 PM)
Minimum temperature yesterday: 36 °F (at 6:00 AM)
Average temperature yesterday: 38 °F

Past Weeks' High & Low Weather Summary

 TemperatureHumidityPressure
High45 °F (Dec 17, 3:00 AM)100% (Dec 11, 11:00 AM)30.80 "Hg (Dec 11, 11:00 AM)
Low24 °F (Dec 7, 9:00 AM)36% (Dec 12, 1:00 PM)29.71 "Hg (Dec 16, 3:00 PM)
Average35 °F76%30.14 "Hg
* Reported Dec 2 8:00 PM — Dec 17 8:00 PM, Burlington, Weather by CustomWeather, © 2014

Note: Actual official high and low records may vary slightly from our data, if they occured in-between our weather recording intervals... More about our weather records

Advertising

Burlington weather history for previous 24 hours

 ConditionsComfort  
Time TempWeatherWind HumidityBarometerVisibility
8:00 PM
Dec 17
34 °FChilly.9 mph81%30.00 "HgN/A
7:00 PM34 °FChilly.12 mph79%29.99 "HgN/A
6:00 PM35 °FChilly.9 mph76%29.96 "HgN/A
5:00 PM36 °FChilly.9 mph77%29.96 "HgN/A
4:00 PM36 °FChilly.12 mph77%29.93 "HgN/A
3:00 PM37 °FChilly.15 mph76%29.92 "HgN/A
2:00 PM37 °FChilly.13 mph75%29.90 "HgN/A
1:00 PM37 °FChilly.10 mph78%29.89 "HgN/A
12:00 PM37 °FChilly.10 mph81%29.90 "HgN/A
11:00 AM36 °FChilly.12 mph85%29.90 "HgN/A
10:00 AM37 °FChilly.10 mph82%29.90 "HgN/A
9:00 AM38 °FChilly.16 mph80%29.88 "HgN/A
8:00 AM38 °FChilly.10 mph85%29.85 "HgN/A
7:00 AM41 °FQuite cool.12 mph78%29.83 "HgN/A
6:00 AM43 °FQuite cool.8 mph84%29.80 "HgN/A
5:00 AM44 °FQuite cool.7 mph84%29.79 "HgN/A
4:00 AM45 °FQuite cool.7 mph85%29.78 "HgN/A
3:00 AM45 °FQuite cool.6 mph87%29.77 "HgN/A
2:00 AM44 °FQuite cool.5 mph92%29.75 "HgN/A
1:00 AM44 °FQuite cool.5 mph95%29.75 "HgN/A
12:00 AM42 °FQuite cool.2 mph96%29.75 "HgN/A
11:00 PM
Dec 16
41 °FQuite cool.6 mph96%29.75 "HgN/A
10:00 PM40 °FQuite cool.No wind97%29.75 "HgN/A
9:00 PM40 °FChilly.2 mph97%29.74 "HgN/A
Weather by CustomWeather, © 2014

See weather overviewHow to use our weather pages